﻿測定場所 (Monitoring sites),日付 (Measurement date),時間 (Measurement time),線量率 最大値 (max) μGy/h,線量率 最小値 (min) μGy/h,線量率 平均値 (average) μGy/h,
大田 (Ota),2012-09-23,23:01～24:00,0.0557,0.0484,0.0522,
大田 (Ota),2012-09-23,22:01～23:00,0.0551,0.0492,0.0523,
大田 (Ota),2012-09-23,21:01～22:00,0.0554,0.0484,0.0518,
大田 (Ota),2012-09-23,20:01～21:00,0.0572,0.0497,0.0528,
大田 (Ota),2012-09-23,19:01～20:00,0.0585,0.0508,0.0548,
大田 (Ota),2012-09-23,18:01～19:00,0.0606,0.0524,0.0570,
大田 (Ota),2012-09-23,17:01～18:00,0.0630,0.0552,0.0587,
大田 (Ota),2012-09-23,16:01～17:00,0.0657,0.0546,0.0593,
大田 (Ota),2012-09-23,15:01～16:00,0.0630,0.0556,0.0593,
大田 (Ota),2012-09-23,14:01～15:00,0.0643,0.0564,0.0604,
大田 (Ota),2012-09-23,13:01～14:00,0.0648,0.0580,0.0612,
大田 (Ota),2012-09-23,12:01～13:00,0.0641,0.0568,0.0603,
大田 (Ota),2012-09-23,11:01～12:00,0.0652,0.0570,0.0619,
大田 (Ota),2012-09-23,10:01～11:00,0.0660,0.0581,0.0614,
大田 (Ota),2012-09-23,09:01～10:00,0.0667,0.0561,0.0624,
大田 (Ota),2012-09-23,08:01～09:00,0.0766,0.0631,0.0694,
大田 (Ota),2012-09-23,07:01～08:00,0.0777,0.0603,0.0671,
大田 (Ota),2012-09-23,06:01～07:00,0.0684,0.0601,0.0642,
大田 (Ota),2012-09-23,05:01～06:00,0.0664,0.0565,0.0622,
大田 (Ota),2012-09-23,04:01～05:00,0.0620,0.0515,0.0559,
大田 (Ota),2012-09-23,03:01～04:00,0.0595,0.0521,0.0554,
大田 (Ota),2012-09-23,02:01～03:00,0.0631,0.0531,0.0582,
大田 (Ota),2012-09-23,01:01～02:00,0.0623,0.0561,0.0591,
大田 (Ota),2012-09-23,00:01～01:00,0.0710,0.0563,0.0638,
大田 (Ota),2012-09-22,23:01～24:00,0.0761,0.0673,0.0710,
大田 (Ota),2012-09-22,22:01～23:00,0.0726,0.0590,0.0652,
大田 (Ota),2012-09-22,21:01～22:00,0.0655,0.0544,0.0593,
大田 (Ota),2012-09-22,20:01～21:00,0.0610,0.0505,0.0563,
大田 (Ota),2012-09-22,19:01～20:00,0.0569,0.0496,0.0535,
大田 (Ota),2012-09-22,18:01～19:00,0.0574,0.0491,0.0533,
大田 (Ota),2012-09-22,17:01～18:00,0.0563,0.0507,0.0534,
大田 (Ota),2012-09-22,16:01～17:00,0.0583,0.0504,0.0541,
大田 (Ota),2012-09-22,15:01～16:00,0.0570,0.0509,0.0535,
大田 (Ota),2012-09-22,14:01～15:00,0.0570,0.0505,0.0534,
大田 (Ota),2012-09-22,13:01～14:00,0.0564,0.0506,0.0530,
大田 (Ota),2012-09-22,12:01～13:00,0.0568,0.0509,0.0539,
大田 (Ota),2012-09-22,11:01～12:00,0.0567,0.0496,0.0530,
大田 (Ota),2012-09-22,10:01～11:00,0.0571,0.0504,0.0539,
大田 (Ota),2012-09-22,09:01～10:00,0.0578,0.0488,0.0536,
大田 (Ota),2012-09-22,08:01～09:00,0.0572,0.0492,0.0537,
大田 (Ota),2012-09-22,07:01～08:00,0.0571,0.0498,0.0534,
大田 (Ota),2012-09-22,06:01～07:00,0.0569,0.0485,0.0538,
大田 (Ota),2012-09-22,05:01～06:00,0.0574,0.0506,0.0535,
大田 (Ota),2012-09-22,04:01～05:00,0.0571,0.0502,0.0534,
大田 (Ota),2012-09-22,03:01～04:00,0.0574,0.0507,0.0535,
大田 (Ota),2012-09-22,02:01～03:00,0.0578,0.0506,0.0535,
大田 (Ota),2012-09-22,01:01～02:00,0.0559,0.0499,0.0530,
大田 (Ota),2012-09-22,00:01～01:00,0.0565,0.0505,0.0532,
大田 (Ota),2012-09-21,23:01～24:00,0.0567,0.0502,0.0532,
大田 (Ota),2012-09-21,22:01～23:00,0.0560,0.0496,0.0531,
大田 (Ota),2012-09-21,21:01～22:00,0.0560,0.0498,0.0533,
大田 (Ota),2012-09-21,20:01～21:00,0.0581,0.0494,0.0533,
大田 (Ota),2012-09-21,19:01～20:00,0.0577,0.0479,0.0537,
大田 (Ota),2012-09-21,18:01～19:00,0.0570,0.0506,0.0536,
大田 (Ota),2012-09-21,17:01～18:00,0.0563,0.0502,0.0535,
大田 (Ota),2012-09-21,16:01～17:00,0.0560,0.0501,0.0532,
大田 (Ota),2012-09-21,15:01～16:00,0.0568,0.0497,0.0535,
大田 (Ota),2012-09-21,14:01～15:00,0.0580,0.0499,0.0535,
大田 (Ota),2012-09-21,13:01～14:00,0.0574,0.0514,0.0543,
大田 (Ota),2012-09-21,12:01～13:00,,,点検中,
大田 (Ota),2012-09-21,11:01～12:00,,,点検中,
大田 (Ota),2012-09-21,10:01～11:00,,,点検中,
大田 (Ota),2012-09-21,09:01～10:00,0.0619,0.0563,0.0592,
大田 (Ota),2012-09-21,08:01～09:00,0.0635,0.0550,0.0599,
大田 (Ota),2012-09-21,07:01～08:00,0.0614,0.0547,0.0581,
大田 (Ota),2012-09-21,06:01～07:00,0.0630,0.0552,0.0582,
大田 (Ota),2012-09-21,05:01～06:00,0.0612,0.0528,0.0581,
大田 (Ota),2012-09-21,04:01～05:00,0.0627,0.0547,0.0583,
大田 (Ota),2012-09-21,03:01～04:00,0.0615,0.0550,0.0580,
大田 (Ota),2012-09-21,02:01～03:00,0.0612,0.0537,0.0576,
大田 (Ota),2012-09-21,01:01～02:00,0.0622,0.0553,0.0579,
大田 (Ota),2012-09-21,00:01～01:00,0.0619,0.0547,0.0573,
大田 (Ota),2012-09-20,23:01～24:00,0.0604,0.0535,0.0574,
大田 (Ota),2012-09-20,22:01～23:00,0.0627,0.0550,0.0584,
大田 (Ota),2012-09-20,21:01～22:00,0.0626,0.0541,0.0577,
大田 (Ota),2012-09-20,20:01～21:00,0.0610,0.0547,0.0576,
大田 (Ota),2012-09-20,19:01～20:00,0.0628,0.0532,0.0578,
大田 (Ota),2012-09-20,18:01～19:00,0.0631,0.0545,0.0580,
大田 (Ota),2012-09-20,17:01～18:00,0.0613,0.0538,0.0577,
大田 (Ota),2012-09-20,16:01～17:00,0.0614,0.0542,0.0573,
大田 (Ota),2012-09-20,15:01～16:00,0.0625,0.0537,0.0574,
大田 (Ota),2012-09-20,14:01～15:00,0.0605,0.0533,0.0573,
大田 (Ota),2012-09-20,13:01～14:00,0.0610,0.0548,0.0575,
大田 (Ota),2012-09-20,12:01～13:00,0.0594,0.0527,0.0571,
大田 (Ota),2012-09-20,11:01～12:00,0.0607,0.0530,0.0571,
大田 (Ota),2012-09-20,10:01～11:00,0.0612,0.0519,0.0572,
大田 (Ota),2012-09-20,09:01～10:00,0.0601,0.0533,0.0573,
大田 (Ota),2012-09-20,08:01～09:00,0.0595,0.0526,0.0566,
大田 (Ota),2012-09-20,07:01～08:00,0.0610,0.0535,0.0569,
大田 (Ota),2012-09-20,06:01～07:00,0.0610,0.0535,0.0565,
大田 (Ota),2012-09-20,05:01～06:00,0.0598,0.0534,0.0570,
大田 (Ota),2012-09-20,04:01～05:00,0.0618,0.0526,0.0566,
大田 (Ota),2012-09-20,03:01～04:00,0.0609,0.0526,0.0568,
大田 (Ota),2012-09-20,02:01～03:00,0.0607,0.0535,0.0568,
大田 (Ota),2012-09-20,01:01～02:00,0.0605,0.0536,0.0567,
大田 (Ota),2012-09-20,00:01～01:00,0.0593,0.0527,0.0561,
大田 (Ota),2012-09-19,23:01～24:00,0.0610,0.0529,0.0567,
大田 (Ota),2012-09-19,22:01～23:00,0.0599,0.0525,0.0561,
大田 (Ota),2012-09-19,21:01～22:00,0.0612,0.0531,0.0563,
大田 (Ota),2012-09-19,20:01～21:00,0.0601,0.0533,0.0563,
大田 (Ota),2012-09-19,19:01～20:00,0.0603,0.0531,0.0567,
大田 (Ota),2012-09-19,18:01～19:00,0.0601,0.0523,0.0562,
大田 (Ota),2012-09-19,17:01～18:00,0.0591,0.0524,0.0565,
大田 (Ota),2012-09-19,16:01～17:00,0.0595,0.0533,0.0565,
大田 (Ota),2012-09-19,15:01～16:00,0.0599,0.0517,0.0560,
大田 (Ota),2012-09-19,14:01～15:00,0.0604,0.0520,0.0561,
大田 (Ota),2012-09-19,13:01～14:00,0.0592,0.0525,0.0563,
大田 (Ota),2012-09-19,12:01～13:00,0.0593,0.0527,0.0560,
大田 (Ota),2012-09-19,11:01～12:00,0.0590,0.0519,0.0562,
大田 (Ota),2012-09-19,10:01～11:00,0.0597,0.0523,0.0560,
大田 (Ota),2012-09-19,09:01～10:00,0.0611,0.0528,0.0563,
大田 (Ota),2012-09-19,08:01～09:00,0.0598,0.0531,0.0561,
大田 (Ota),2012-09-19,07:01～08:00,0.0597,0.0529,0.0562,
大田 (Ota),2012-09-19,06:01～07:00,0.0606,0.0534,0.0566,
大田 (Ota),2012-09-19,05:01～06:00,0.0610,0.0527,0.0562,
大田 (Ota),2012-09-19,04:01～05:00,0.0630,0.0536,0.0568,
大田 (Ota),2012-09-19,03:01～04:00,0.0606,0.0515,0.0565,
大田 (Ota),2012-09-19,02:01～03:00,0.0609,0.0537,0.0572,
大田 (Ota),2012-09-19,01:01～02:00,0.0603,0.0535,0.0572,
大田 (Ota),2012-09-19,00:01～01:00,0.0611,0.0522,0.0569,
大田 (Ota),2012-09-18,23:01～24:00,0.0636,0.0549,0.0580,
大田 (Ota),2012-09-18,22:01～23:00,0.0625,0.0557,0.0585,
大田 (Ota),2012-09-18,21:01～22:00,0.0614,0.0537,0.0578,
大田 (Ota),2012-09-18,20:01～21:00,0.0630,0.0546,0.0577,
大田 (Ota),2012-09-18,19:01～20:00,0.0611,0.0530,0.0577,
大田 (Ota),2012-09-18,18:01～19:00,0.0615,0.0543,0.0576,
大田 (Ota),2012-09-18,17:01～18:00,0.0614,0.0531,0.0578,
大田 (Ota),2012-09-18,16:01～17:00,0.0607,0.0542,0.0575,
大田 (Ota),2012-09-18,15:01～16:00,0.0619,0.0523,0.0571,
大田 (Ota),2012-09-18,14:01～15:00,0.0613,0.0536,0.0577,
大田 (Ota),2012-09-18,13:01～14:00,0.0611,0.0541,0.0575,
大田 (Ota),2012-09-18,12:01～13:00,0.0616,0.0528,0.0570,
大田 (Ota),2012-09-18,11:01～12:00,0.0622,0.0531,0.0572,
大田 (Ota),2012-09-18,10:01～11:00,0.0617,0.0545,0.0574,
大田 (Ota),2012-09-18,09:01～10:00,0.0606,0.0529,0.0568,
大田 (Ota),2012-09-18,08:01～09:00,0.0598,0.0514,0.0565,
大田 (Ota),2012-09-18,07:01～08:00,0.0594,0.0531,0.0567,
大田 (Ota),2012-09-18,06:01～07:00,0.0603,0.0538,0.0570,
大田 (Ota),2012-09-18,05:01～06:00,0.0610,0.0529,0.0569,
大田 (Ota),2012-09-18,04:01～05:00,0.0616,0.0530,0.0570,
大田 (Ota),2012-09-18,03:01～04:00,0.0601,0.0529,0.0565,
大田 (Ota),2012-09-18,02:01～03:00,0.0614,0.0521,0.0576,
大田 (Ota),2012-09-18,01:01～02:00,0.0611,0.0546,0.0573,
大田 (Ota),2012-09-18,00:01～01:00,0.0607,0.0542,0.0574,
大田 (Ota),2012-09-17,23:01～24:00,0.0618,0.0550,0.0583,
大田 (Ota),2012-09-17,22:01～23:00,0.0624,0.0536,0.0577,
大田 (Ota),2012-09-17,21:01～22:00,0.0619,0.0541,0.0580,
大田 (Ota),2012-09-17,20:01～21:00,0.0621,0.0548,0.0581,
大田 (Ota),2012-09-17,19:01～20:00,0.0616,0.0542,0.0588,
大田 (Ota),2012-09-17,18:01～19:00,0.0627,0.0539,0.0582,
大田 (Ota),2012-09-17,17:01～18:00,0.0613,0.0557,0.0583,
大田 (Ota),2012-09-17,16:01～17:00,0.0631,0.0533,0.0586,
大田 (Ota),2012-09-17,15:01～16:00,0.0620,0.0544,0.0586,
大田 (Ota),2012-09-17,14:01～15:00,0.0624,0.0536,0.0582,
大田 (Ota),2012-09-17,13:01～14:00,0.0619,0.0543,0.0579,
大田 (Ota),2012-09-17,12:01～13:00,0.0630,0.0547,0.0581,
大田 (Ota),2012-09-17,11:01～12:00,0.0620,0.0551,0.0581,
大田 (Ota),2012-09-17,10:01～11:00,0.0626,0.0549,0.0580,
大田 (Ota),2012-09-17,09:01～10:00,0.0606,0.0541,0.0580,
大田 (Ota),2012-09-17,08:01～09:00,0.0606,0.0544,0.0581,
大田 (Ota),2012-09-17,07:01～08:00,0.0612,0.0549,0.0576,
大田 (Ota),2012-09-17,06:01～07:00,0.0607,0.0546,0.0578,
大田 (Ota),2012-09-17,05:01～06:00,0.0616,0.0533,0.0580,
大田 (Ota),2012-09-17,04:01～05:00,0.0611,0.0537,0.0574,
大田 (Ota),2012-09-17,03:01～04:00,0.0612,0.0540,0.0577,
大田 (Ota),2012-09-17,02:01～03:00,0.0612,0.0534,0.0581,
大田 (Ota),2012-09-17,01:01～02:00,0.0613,0.0548,0.0581,
大田 (Ota),2012-09-17,00:01～01:00,0.0622,0.0546,0.0581,
